Time,TemperatureF,DewpointF,PressureIn,WindDirection,WindDirectionDegrees,WindSpeedMPH,WindSpeedGustMPH,Humidity,HourlyPrecipIn,Conditions,Clouds,dailyrainin,SolarRadiationWatts/m^2,SoftwareType,DateUTC
2013-08-27 00:00:00,67.2,62.5,30.12,NW,309,4.0,4.0,85,0.00,,,0.00,0,Wunderground v.1.15,2013-08-27 10:00:00,
2013-08-27 00:10:00,66.6,62.3,30.12,NW,309,1.0,1.0,86,0.00,,,0.00,0,Wunderground v.1.15,2013-08-27 10:10:00,
2013-08-27 00:15:00,66.2,62.2,30.12,NW,309,1.0,2.0,87,0.00,,,0.00,0,Wunderground v.1.15,2013-08-27 10:15:00,
2013-08-27 00:25:00,65.9,61.6,30.11,NW,304,3.0,5.0,86,0.00,,,0.00,0,Wunderground v.1.15,2013-08-27 10:25:00,
2013-08-27 00:30:00,66.0,61.7,30.12,NW,304,3.0,3.0,86,0.00,,,0.00,0,Wunderground v.1.15,2013-08-27 10:30:00,
2013-08-27 00:35:00,66.0,61.4,30.11,NW,304,3.0,3.0,85,0.00,,,0.00,0,Wunderground v.1.15,2013-08-27 10:35:00,
2013-08-27 00:40:00,65.9,61.3,30.11,NW,304,3.0,4.0,85,0.00,,,0.00,0,Wunderground v.1.15,2013-08-27 10:40:00,
2013-08-27 00:45:00,65.3,61.0,30.11,NW,310,2.0,4.0,86,0.00,,,0.00,0,Wunderground v.1.15,2013-08-27 10:45:00,
2013-08-27 00:50:00,64.9,60.9,30.11,NW,310,1.0,1.0,87,0.00,,,0.00,0,Wunderground v.1.15,2013-08-27 10:50:00,
2013-08-27 01:00:00,64.9,60.9,30.11,NW,325,2.0,4.0,87,0.00,,,0.00,0,Wunderground v.1.15,2013-08-27 11:00:00,
2013-08-27 01:10:00,66.0,61.0,30.10,NNW,331,2.0,4.0,84,0.00,,,0.00,0,Wunderground v.1.15,2013-08-27 11:10:00,
2013-08-27 01:15:00,66.8,61.1,30.10,NNW,332,1.0,4.0,82,0.00,,,0.00,0,Wunderground v.1.15,2013-08-27 11:15:00,
2013-08-27 01:20:00,66.9,61.2,30.10,NNW,332,1.0,1.0,82,0.00,,,0.00,0,Wunderground v.1.15,2013-08-27 11:20:00,
2013-08-27 01:25:00,66.7,61.0,30.10,NNW,332,0.0,1.0,82,0.00,,,0.00,0,Wunderground v.1.15,2013-08-27 11:25:00,
2013-08-27 01:30:00,66.2,60.5,30.10,NNW,334,1.0,3.0,82,0.00,,,0.00,0,Wunderground v.1.15,2013-08-27 11:30:00,
2013-08-27 01:35:00,67.2,60.8,30.10,NNW,342,2.0,3.0,80,0.00,,,0.00,0,Wunderground v.1.15,2013-08-27 11:35:00,
2013-08-27 01:40:00,68.2,60.7,30.10,North,350,2.0,2.0,77,0.00,,,0.00,0,Wunderground v.1.15,2013-08-27 11:40:00,
2013-08-27 01:50:00,69.0,61.1,30.09,NNW,348,2.0,3.0,76,0.00,,,0.00,0,Wunderground v.1.15,2013-08-27 11:50:00,
2013-08-27 01:55:00,68.5,61.0,30.09,NNW,348,1.0,3.0,77,0.00,,,0.00,0,Wunderground v.1.15,2013-08-27 11:55:00,
2013-08-27 02:00:00,68.1,60.6,30.09,NNW,348,0.0,0.0,77,0.00,,,0.00,0,Wunderground v.1.15,2013-08-27 12:00:00,
2013-08-27 02:10:00,67.3,60.6,30.09,NNW,348,0.0,0.0,79,0.00,,,0.00,0,Wunderground v.1.15,2013-08-27 12:10:00,
2013-08-27 02:20:00,66.7,60.3,30.09,NNW,348,0.0,0.0,80,0.00,,,0.00,0,Wunderground v.1.15,2013-08-27 12:20:00,
2013-08-27 02:25:00,66.6,60.2,30.09,NNW,333,0.0,5.0,80,0.00,,,0.00,0,Wunderground v.1.15,2013-08-27 12:25:00,
2013-08-27 02:30:00,67.1,60.7,30.09,West,280,2.0,2.0,80,0.00,,,0.00,0,Wunderground v.1.15,2013-08-27 12:30:00,
2013-08-27 02:35:00,67.1,60.7,30.09,West,280,2.0,3.0,80,0.00,,,0.00,0,Wunderground v.1.15,2013-08-27 12:35:00,
2013-08-27 02:40:00,66.5,60.5,30.09,West,280,2.0,2.0,81,0.00,,,0.00,0,Wunderground v.1.15,2013-08-27 12:40:00,
2013-08-27 02:45:00,66.0,60.3,30.09,West,280,2.0,3.0,82,0.00,,,0.00,0,Wunderground v.1.15,2013-08-27 12:45:00,
2013-08-27 02:50:00,66.3,60.6,30.09,West,281,3.0,3.0,82,0.00,,,0.00,0,Wunderground v.1.15,2013-08-27 12:50:00,
2013-08-27 02:55:00,66.8,61.8,30.09,West,281,3.0,3.0,84,0.00,,,0.00,0,Wunderground v.1.15,2013-08-27 12:55:00,
2013-08-27 03:00:00,66.8,61.8,30.08,West,281,2.0,4.0,84,0.00,,,0.00,0,Wunderground v.1.15,2013-08-27 13:00:00,
2013-08-27 03:10:00,66.7,61.4,30.08,WNW,286,3.0,5.0,83,0.00,,,0.00,0,Wunderground v.1.15,2013-08-27 13:10:00,
2013-08-27 03:15:00,66.8,61.1,30.08,WNW,286,3.0,5.0,82,0.00,,,0.00,0,Wunderground v.1.15,2013-08-27 13:15:00,
2013-08-27 03:20:00,66.9,61.2,30.08,WNW,286,4.0,4.0,82,0.00,,,0.00,0,Wunderground v.1.15,2013-08-27 13:20:00,
2013-08-27 03:30:00,66.8,61.1,30.08,NW,304,4.0,4.0,82,0.00,,,0.00,0,Wunderground v.1.15,2013-08-27 13:30:00,
2013-08-27 03:35:00,66.8,60.8,30.08,NW,306,4.0,4.0,81,0.00,,,0.00,0,Wunderground v.1.15,2013-08-27 13:35:00,
2013-08-27 03:45:00,66.6,60.9,30.08,NW,317,3.0,3.0,82,0.00,,,0.00,0,Wunderground v.1.15,2013-08-27 13:45:00,
2013-08-27 03:50:00,66.0,60.7,30.09,NW,319,1.0,1.0,83,0.00,,,0.00,0,Wunderground v.1.15,2013-08-27 13:50:00,
2013-08-27 03:55:00,65.5,60.5,30.09,NW,319,0.0,1.0,84,0.00,,,0.00,0,Wunderground v.1.15,2013-08-27 13:55:00,
2013-08-27 04:00:00,65.2,60.6,30.09,NW,319,0.0,0.0,85,0.00,,,0.00,0,Wunderground v.1.15,2013-08-27 14:00:00,
2013-08-27 04:10:00,65.6,60.6,30.10,NW,322,2.0,4.0,84,0.00,,,0.00,0,Wunderground v.1.15,2013-08-27 14:10:00,
2013-08-27 04:15:00,65.9,60.9,30.09,NW,323,2.0,4.0,84,0.00,,,0.00,0,Wunderground v.1.15,2013-08-27 14:15:00,
2013-08-27 04:20:00,65.9,61.3,30.10,NW,323,2.0,2.0,85,0.00,,,0.00,0,Wunderground v.1.15,2013-08-27 14:20:00,
2013-08-27 04:25:00,66.1,61.5,30.10,NW,323,1.0,2.0,85,0.00,,,0.00,0,Wunderground v.1.15,2013-08-27 14:25:00,
2013-08-27 04:30:00,66.3,61.7,30.10,NW,323,0.0,4.0,85,0.00,,,0.00,0,Wunderground v.1.15,2013-08-27 14:30:00,
2013-08-27 04:35:00,66.2,61.2,30.10,NW,323,0.0,4.0,84,0.00,,,0.00,0,Wunderground v.1.15,2013-08-27 14:35:00,
2013-08-27 04:45:00,67.8,61.4,30.10,ENE,61,4.0,4.0,80,0.00,,,0.00,0,Wunderground v.1.15,2013-08-27 14:45:00,
2013-08-27 04:50:00,68.3,61.5,30.10,North,9,3.0,3.0,79,0.00,,,0.00,0,Wunderground v.1.15,2013-08-27 14:50:00,
2013-08-27 05:00:00,68.0,61.6,30.10,North,360,2.0,2.0,80,0.00,,,0.00,0,Wunderground v.1.15,2013-08-27 15:00:00,
2013-08-27 05:10:00,67.3,61.3,30.10,North,360,0.0,0.0,81,0.00,,,0.00,0,Wunderground v.1.15,2013-08-27 15:10:00,
2013-08-27 05:20:00,67.6,60.9,30.10,NNW,345,3.0,3.0,79,0.00,,,0.00,0,Wunderground v.1.15,2013-08-27 15:20:00,
2013-08-27 05:25:00,67.6,60.5,30.10,NNW,342,2.0,3.0,78,0.00,,,0.00,0,Wunderground v.1.15,2013-08-27 15:25:00,
2013-08-27 05:30:00,67.3,60.6,30.10,NNW,342,1.0,4.0,79,0.00,,,0.00,0,Wunderground v.1.15,2013-08-27 15:30:00,
2013-08-27 05:35:00,67.6,60.5,30.10,NNW,342,1.0,4.0,78,0.00,,,0.00,0,Wunderground v.1.15,2013-08-27 15:35:00,
2013-08-27 05:40:00,67.8,60.3,30.10,North,349,2.0,3.0,77,0.00,,,0.00,0,Wunderground v.1.15,2013-08-27 15:40:00,
2013-08-27 05:45:00,67.6,60.1,30.10,NNW,331,2.0,3.0,77,0.00,,,0.00,0,Wunderground v.1.15,2013-08-27 15:45:00,
2013-08-27 05:50:00,67.0,59.9,30.10,NNW,331,1.0,1.0,78,0.00,,,0.00,0,Wunderground v.1.15,2013-08-27 15:50:00,
2013-08-27 06:00:00,66.1,59.7,30.10,NW,325,2.0,4.0,80,0.00,,,0.00,0,Wunderground v.1.15,2013-08-27 16:00:00,
2013-08-27 06:10:00,65.9,59.6,30.10,NNW,329,1.0,1.0,80,0.00,,,0.00,5,Wunderground v.1.15,2013-08-27 16:10:00,
2013-08-27 06:15:00,66.2,59.8,30.10,NNW,348,1.0,5.0,80,0.00,,,0.00,9,Wunderground v.1.15,2013-08-27 16:15:00,
2013-08-27 06:20:00,66.1,59.7,30.10,NNW,333,1.0,4.0,80,0.00,,,0.00,12,Wunderground v.1.15,2013-08-27 16:20:00,
2013-08-27 06:30:00,66.6,59.9,30.10,NNW,345,4.0,4.0,79,0.00,,,0.00,21,Wunderground v.1.15,2013-08-27 16:30:00,
2013-08-27 06:35:00,68.1,59.9,30.10,North,355,4.0,4.0,75,0.00,,,0.00,30,Wunderground v.1.15,2013-08-27 16:35:00,
2013-08-27 06:40:00,68.8,60.2,30.10,North,355,2.0,2.0,74,0.00,,,0.00,42,Wunderground v.1.15,2013-08-27 16:40:00,
2013-08-27 06:45:00,69.2,60.6,30.10,North,355,1.0,4.0,74,0.00,,,0.00,58,Wunderground v.1.15,2013-08-27 16:45:00,
2013-08-27 06:50:00,69.1,60.5,30.11,North,355,1.0,1.0,74,0.00,,,0.00,76,Wunderground v.1.15,2013-08-27 16:50:00,
2013-08-27 06:55:00,69.6,61.3,30.11,North,355,1.0,1.0,75,0.00,,,0.00,100,Wunderground v.1.15,2013-08-27 16:55:00,
2013-08-27 07:00:00,69.7,61.0,30.11,North,355,0.0,0.0,74,0.00,,,0.00,125,Wunderground v.1.15,2013-08-27 17:00:00,
2013-08-27 07:10:00,70.4,61.7,30.11,NNW,333,2.0,3.0,74,0.00,,,0.00,169,Wunderground v.1.15,2013-08-27 17:10:00,
2013-08-27 07:15:00,71.2,62.9,30.11,North,355,2.0,3.0,75,0.00,,,0.00,190,Wunderground v.1.15,2013-08-27 17:15:00,
2013-08-27 07:20:00,71.5,63.2,30.11,North,355,2.0,3.0,75,0.00,,,0.00,211,Wunderground v.1.15,2013-08-27 17:20:00,
2013-08-27 07:25:00,72.5,62.6,30.12,North,355,1.0,3.0,71,0.00,,,0.00,234,Wunderground v.1.15,2013-08-27 17:25:00,
2013-08-27 07:35:00,74.4,64.0,30.12,North,355,0.0,1.0,70,0.00,,,0.00,271,Wunderground v.1.15,2013-08-27 17:35:00,
2013-08-27 07:40:00,75.0,63.7,30.11,NNW,346,1.0,1.0,68,0.00,,,0.00,292,Wunderground v.1.15,2013-08-27 17:40:00,
2013-08-27 07:45:00,75.7,64.0,30.11,North,349,2.0,2.0,67,0.00,,,0.00,309,Wunderground v.1.15,2013-08-27 17:45:00,
2013-08-27 07:50:00,76.5,64.3,30.11,NNE,33,2.0,2.0,66,0.00,,,0.00,334,Wunderground v.1.15,2013-08-27 17:50:00,
2013-08-27 07:55:00,77.1,65.3,30.11,NNE,33,1.0,2.0,67,0.00,,,0.00,353,Wunderground v.1.15,2013-08-27 17:55:00,
2013-08-27 08:00:00,77.7,66.7,30.11,ESE,116,1.0,1.0,69,0.00,,,0.00,387,Wunderground v.1.15,2013-08-27 18:00:00,
2013-08-27 08:10:00,77.6,68.3,30.12,ESE,102,2.0,3.0,73,0.00,,,0.00,522,Wunderground v.1.15,2013-08-27 18:10:00,
2013-08-27 08:15:00,77.9,70.1,30.12,SE,136,3.0,5.0,77,0.00,,,0.00,367,Wunderground v.1.15,2013-08-27 18:15:00,
2013-08-27 08:25:00,76.7,70.4,30.11,ENE,71,5.0,7.0,81,0.00,,,0.00,482,Wunderground v.1.15,2013-08-27 18:25:00,
2013-08-27 08:30:00,76.8,70.9,30.12,ESE,104,6.0,6.0,82,0.00,,,0.00,492,Wunderground v.1.15,2013-08-27 18:30:00,
2013-08-27 08:35:00,76.9,71.3,30.11,ESE,123,5.0,6.0,83,0.00,,,0.00,506,Wunderground v.1.15,2013-08-27 18:35:00,
2013-08-27 08:40:00,77.1,71.2,30.11,SE,140,6.0,7.0,82,0.00,,,0.00,527,Wunderground v.1.15,2013-08-27 18:40:00,
2013-08-27 08:45:00,77.2,70.9,30.12,ESE,121,6.0,7.0,81,0.00,,,0.00,547,Wunderground v.1.15,2013-08-27 18:45:00,
2013-08-27 08:50:00,77.2,70.9,30.11,SE,134,6.0,6.0,81,0.00,,,0.00,563,Wunderground v.1.15,2013-08-27 18:50:00,
2013-08-27 08:55:00,77.6,70.6,30.11,SE,146,5.0,8.0,79,0.00,,,0.00,580,Wunderground v.1.15,2013-08-27 18:55:00,
2013-08-27 09:00:00,77.9,70.5,30.11,ENE,59,6.0,6.0,78,0.00,,,0.00,601,Wunderground v.1.15,2013-08-27 19:00:00,
2013-08-27 09:10:00,78.6,70.4,30.11,SE,136,5.0,9.0,76,0.00,,,0.00,636,Wunderground v.1.15,2013-08-27 19:10:00,
2013-08-27 09:15:00,79.2,69.8,30.11,SSE,150,6.0,13.0,73,0.00,,,0.00,649,Wunderground v.1.15,2013-08-27 19:15:00,
2013-08-27 09:20:00,79.6,70.6,30.11,SSE,157,6.0,6.0,74,0.00,,,0.00,668,Wunderground v.1.15,2013-08-27 19:20:00,
2013-08-27 09:30:00,79.9,70.1,30.11,SE,133,7.0,11.0,72,0.00,,,0.00,701,Wunderground v.1.15,2013-08-27 19:30:00,
2013-08-27 09:35:00,79.5,70.9,30.11,SE,136,8.0,11.0,75,0.00,,,0.00,715,Wunderground v.1.15,2013-08-27 19:35:00,
2013-08-27 09:40:00,79.6,70.6,30.11,SE,138,9.0,9.0,74,0.00,,,0.00,731,Wunderground v.1.15,2013-08-27 19:40:00,
2013-08-27 09:45:00,80.0,71.0,30.10,SE,125,8.0,9.0,74,0.00,,,0.00,745,Wunderground v.1.15,2013-08-27 19:45:00,
2013-08-27 09:55:00,79.9,70.1,30.10,SE,132,10.0,10.0,72,0.00,,,0.00,775,Wunderground v.1.15,2013-08-27 19:55:00,
2013-08-27 10:00:00,80.1,70.3,30.11,ESE,105,10.0,10.0,72,0.00,,,0.00,793,Wunderground v.1.15,2013-08-27 20:00:00,
2013-08-27 10:10:00,80.9,69.8,30.10,ESE,119,8.0,9.0,69,0.00,,,0.00,817,Wunderground v.1.15,2013-08-27 20:10:00,
2013-08-27 10:20:00,80.8,70.9,30.10,SE,134,9.0,9.0,72,0.00,,,0.00,842,Wunderground v.1.15,2013-08-27 20:20:00,
2013-08-27 10:25:00,80.5,71.4,30.10,East,98,9.0,9.0,74,0.00,,,0.00,854,Wunderground v.1.15,2013-08-27 20:25:00,
2013-08-27 10:30:00,80.7,72.0,30.10,SE,134,8.0,12.0,75,0.00,,,0.00,861,Wunderground v.1.15,2013-08-27 20:30:00,
2013-08-27 10:35:00,80.8,72.9,30.10,SE,132,8.0,16.0,77,0.00,,,0.00,879,Wunderground v.1.15,2013-08-27 20:35:00,
2013-08-27 10:40:00,80.0,72.5,30.10,SE,132,11.0,11.0,78,0.00,,,0.00,891,Wunderground v.1.15,2013-08-27 20:40:00,
2013-08-27 10:45:00,79.7,72.6,30.10,ESE,105,10.0,11.0,79,0.00,,,0.00,898,Wunderground v.1.15,2013-08-27 20:45:00,
2013-08-27 10:50:00,79.5,72.8,30.10,ENE,68,9.0,11.0,80,0.00,,,0.00,907,Wunderground v.1.15,2013-08-27 20:50:00,
2013-08-27 10:55:00,79.5,72.4,30.10,SE,146,9.0,11.0,79,0.00,,,0.00,916,Wunderground v.1.15,2013-08-27 20:55:00,
2013-08-27 11:00:00,79.6,73.3,30.10,SE,126,9.0,19.0,81,0.00,,,0.00,923,Wunderground v.1.15,2013-08-27 21:00:00,
2013-08-27 11:10:00,79.6,72.5,30.09,SE,138,10.0,13.0,79,0.00,,,0.00,933,Wunderground v.1.15,2013-08-27 21:10:00,
2013-08-27 11:15:00,79.4,72.7,30.09,SE,140,10.0,13.0,80,0.00,,,0.00,942,Wunderground v.1.15,2013-08-27 21:15:00,
2013-08-27 11:20:00,79.6,72.5,30.09,ESE,109,10.0,10.0,79,0.00,,,0.00,951,Wunderground v.1.15,2013-08-27 21:20:00,
2013-08-27 11:30:00,79.3,73.0,30.09,SE,128,10.0,10.0,81,0.00,,,0.00,960,Wunderground v.1.15,2013-08-27 21:30:00,
2013-08-27 11:35:00,79.5,73.2,30.09,SSE,148,9.0,12.0,81,0.00,,,0.00,977,Wunderground v.1.15,2013-08-27 21:35:00,
2013-08-27 11:40:00,79.9,73.2,30.09,East,79,7.0,8.0,80,0.00,,,0.00,984,Wunderground v.1.15,2013-08-27 21:40:00,
2013-08-27 11:45:00,79.9,72.8,30.09,SE,138,7.0,8.0,79,0.00,,,0.00,986,Wunderground v.1.15,2013-08-27 21:45:00,
2013-08-27 11:55:00,79.9,72.8,30.09,SE,126,8.0,8.0,79,0.00,,,0.00,995,Wunderground v.1.15,2013-08-27 21:55:00,
2013-08-27 12:00:00,79.9,73.5,30.09,SE,124,8.0,14.0,81,0.00,,,0.00,1016,Wunderground v.1.15,2013-08-27 22:00:00,
2013-08-27 12:10:00,79.7,73.3,30.08,ESE,112,8.0,8.0,81,0.00,,,0.00,1041,Wunderground v.1.15,2013-08-27 22:10:00,
2013-08-27 12:15:00,79.5,73.5,30.08,East,101,7.0,8.0,82,0.00,,,0.00,1048,Wunderground v.1.15,2013-08-27 22:15:00,
2013-08-27 12:20:00,79.8,73.4,30.08,ENE,64,8.0,8.0,81,0.00,,,0.00,1037,Wunderground v.1.15,2013-08-27 22:20:00,
2013-08-27 12:25:00,79.7,73.7,30.08,SE,132,8.0,8.0,82,0.00,,,0.00,1032,Wunderground v.1.15,2013-08-27 22:25:00,
2013-08-27 12:35:00,79.7,73.7,30.07,SSE,148,7.0,10.0,82,0.00,,,0.00,1069,Wunderground v.1.15,2013-08-27 22:35:00,
2013-08-27 12:40:00,79.9,73.9,30.06,SE,145,7.0,13.0,82,0.00,,,0.00,1062,Wunderground v.1.15,2013-08-27 22:40:00,
2013-08-27 12:50:00,79.9,73.5,30.06,ENE,75,8.0,8.0,81,0.00,,,0.00,1007,Wunderground v.1.15,2013-08-27 22:50:00,
2013-08-27 12:55:00,79.8,72.7,30.06,SE,143,7.0,8.0,79,0.00,,,0.00,1016,Wunderground v.1.15,2013-08-27 22:55:00,
2013-08-27 13:00:00,80.1,73.4,30.06,ESE,120,7.0,7.0,80,0.00,,,0.00,1020,Wunderground v.1.15,2013-08-27 23:00:00,
2013-08-27 13:10:00,80.5,73.0,30.06,SSE,150,7.0,12.0,78,0.00,,,0.00,986,Wunderground v.1.15,2013-08-27 23:10:00,
2013-08-27 13:15:00,80.3,73.2,30.05,ESE,120,8.0,13.0,79,0.00,,,0.00,1000,Wunderground v.1.15,2013-08-27 23:15:00,
2013-08-27 13:20:00,80.0,72.5,30.05,SE,130,8.0,12.0,78,0.00,,,0.00,995,Wunderground v.1.15,2013-08-27 23:20:00,
2013-08-27 13:25:00,79.7,72.6,30.05,SE,142,8.0,12.0,79,0.00,,,0.00,1004,Wunderground v.1.15,2013-08-27 23:25:00,
2013-08-27 13:35:00,80.1,73.4,30.05,NE,45,6.0,9.0,80,0.00,,,0.00,974,Wunderground v.1.15,2013-08-27 23:35:00,
2013-08-27 13:40:00,80.1,73.4,30.04,NE,46,6.0,6.0,80,0.00,,,0.00,1051,Wunderground v.1.15,2013-08-27 23:40:00,
2013-08-27 13:45:00,80.3,73.6,30.05,SE,142,5.0,9.0,80,0.00,,,0.00,334,Wunderground v.1.15,2013-08-27 23:45:00,
2013-08-27 13:50:00,80.2,73.5,30.04,SE,127,6.0,6.0,80,0.00,,,0.00,972,Wunderground v.1.15,2013-08-27 23:50:00,
2013-08-27 13:55:00,79.9,72.8,30.04,ESE,123,7.0,7.0,79,0.00,,,0.00,942,Wunderground v.1.15,2013-08-27 23:55:00,
2013-08-27 14:00:00,80.2,73.1,30.04,SE,125,4.0,5.0,79,0.00,,,0.00,918,Wunderground v.1.15,2013-08-28 00:00:00,
2013-08-27 14:10:00,80.8,72.9,30.03,SE,144,4.0,4.0,77,0.00,,,0.00,998,Wunderground v.1.15,2013-08-28 00:10:00,
2013-08-27 14:15:00,81.1,73.2,30.03,East,82,5.0,5.0,77,0.00,,,0.00,942,Wunderground v.1.15,2013-08-28 00:15:00,
2013-08-27 14:20:00,81.0,72.7,30.03,East,100,4.0,4.0,76,0.00,,,0.00,888,Wunderground v.1.15,2013-08-28 00:20:00,
2013-08-27 14:25:00,80.8,72.9,30.03,ESE,113,5.0,5.0,77,0.00,,,0.00,865,Wunderground v.1.15,2013-08-28 00:25:00,
2013-08-27 14:30:00,80.8,72.5,30.03,ESE,103,5.0,5.0,76,0.00,,,0.00,891,Wunderground v.1.15,2013-08-28 00:30:00,
2013-08-27 14:40:00,81.1,72.8,30.02,SSE,154,3.0,10.0,76,0.00,,,0.00,875,Wunderground v.1.15,2013-08-28 00:40:00,
2013-08-27 14:45:00,81.1,73.2,30.02,SE,127,5.0,10.0,77,0.00,,,0.00,900,Wunderground v.1.15,2013-08-28 00:45:00,
2013-08-27 14:50:00,80.8,72.5,30.02,ESE,102,5.0,6.0,76,0.00,,,0.00,812,Wunderground v.1.15,2013-08-28 00:50:00,
2013-08-27 14:55:00,80.8,72.1,30.02,SSE,152,5.0,6.0,75,0.00,,,0.00,802,Wunderground v.1.15,2013-08-28 00:55:00,
2013-08-27 15:00:00,80.8,71.7,30.02,SE,138,5.0,6.0,74,0.00,,,0.00,779,Wunderground v.1.15,2013-08-28 01:00:00,
2013-08-27 15:10:00,81.3,71.4,30.02,SE,138,4.0,11.0,72,0.00,,,0.00,761,Wunderground v.1.15,2013-08-28 01:10:00,
2013-08-27 15:15:00,81.1,72.0,30.01,South,177,6.0,11.0,74,0.00,,,0.00,773,Wunderground v.1.15,2013-08-28 01:15:00,
2013-08-27 15:20:00,81.1,72.0,30.02,ESE,103,7.0,7.0,74,0.00,,,0.00,747,Wunderground v.1.15,2013-08-28 01:20:00,
2013-08-27 15:25:00,81.2,72.5,30.01,ESE,121,7.0,7.0,75,0.00,,,0.00,756,Wunderground v.1.15,2013-08-28 01:25:00,
2013-08-27 15:30:00,81.1,71.6,30.01,SE,129,6.0,7.0,73,0.00,,,0.00,707,Wunderground v.1.15,2013-08-28 01:30:00,
2013-08-27 15:35:00,80.8,70.9,30.01,ESE,123,6.0,7.0,72,0.00,,,0.00,680,Wunderground v.1.15,2013-08-28 01:35:00,
2013-08-27 15:40:00,80.9,70.6,30.01,SSE,152,6.0,6.0,71,0.00,,,0.00,650,Wunderground v.1.15,2013-08-28 01:40:00,
2013-08-27 15:50:00,80.8,70.1,30.01,East,85,7.0,7.0,70,0.00,,,0.00,621,Wunderground v.1.15,2013-08-28 01:50:00,
2013-08-27 15:55:00,80.8,70.1,30.01,East,90,7.0,7.0,70,0.00,,,0.00,564,Wunderground v.1.15,2013-08-28 01:55:00,
2013-08-27 16:00:00,80.7,70.0,30.01,ESE,119,6.0,6.0,70,0.00,,,0.00,125,Wunderground v.1.15,2013-08-28 02:00:00,
2013-08-27 16:10:00,80.9,70.6,30.01,SE,138,4.0,4.0,71,0.00,,,0.00,536,Wunderground v.1.15,2013-08-28 02:10:00,
2013-08-27 16:15:00,81.1,70.4,30.01,ESE,115,4.0,5.0,70,0.00,,,0.00,527,Wunderground v.1.15,2013-08-28 02:15:00,
2013-08-27 16:20:00,81.1,70.4,30.01,South,184,4.0,4.0,70,0.00,,,0.00,512,Wunderground v.1.15,2013-08-28 02:20:00,
2013-08-27 16:25:00,80.8,70.1,30.01,SSE,159,4.0,4.0,70,0.00,,,0.00,510,Wunderground v.1.15,2013-08-28 02:25:00,
2013-08-27 16:30:00,80.4,70.1,30.01,SSE,148,4.0,4.0,71,0.00,,,0.00,323,Wunderground v.1.15,2013-08-28 02:30:00,
2013-08-27 16:40:00,79.9,70.1,30.01,SE,134,4.0,4.0,72,0.00,,,0.00,148,Wunderground v.1.15,2013-08-28 02:40:00,
2013-08-27 16:45:00,79.4,70.0,30.01,SSE,150,4.0,5.0,73,0.00,,,0.00,102,Wunderground v.1.15,2013-08-28 02:45:00,
2013-08-27 16:50:00,79.1,69.7,30.01,ESE,115,3.0,5.0,73,0.00,,,0.00,72,Wunderground v.1.15,2013-08-28 02:50:00,
2013-08-27 17:00:00,78.5,69.1,30.01,SE,124,3.0,5.0,73,0.00,,,0.00,105,Wunderground v.1.15,2013-08-28 03:00:00,
2013-08-27 17:10:00,78.2,68.8,30.01,SE,140,4.0,4.0,73,0.00,,,0.00,176,Wunderground v.1.15,2013-08-28 03:10:00,
2013-08-27 17:20:00,78.3,69.3,30.01,South,184,2.0,2.0,74,0.00,,,0.00,272,Wunderground v.1.15,2013-08-28 03:20:00,
2013-08-27 17:25:00,78.3,69.7,30.01,SE,130,2.0,2.0,75,0.00,,,0.00,76,Wunderground v.1.15,2013-08-28 03:25:00,
2013-08-27 17:30:00,78.3,69.7,30.01,ESE,123,3.0,4.0,75,0.00,,,0.00,211,Wunderground v.1.15,2013-08-28 03:30:00,
2013-08-27 17:35:00,78.1,70.3,30.01,SE,131,3.0,4.0,77,0.00,,,0.00,197,Wunderground v.1.15,2013-08-28 03:35:00,
2013-08-27 17:45:00,77.8,70.8,30.01,ENE,61,1.0,3.0,79,0.00,,,0.00,53,Wunderground v.1.15,2013-08-28 03:45:00,
2013-08-27 17:50:00,77.5,70.8,30.01,SE,134,1.0,5.0,80,0.00,,,0.00,46,Wunderground v.1.15,2013-08-28 03:50:00,
2013-08-27 17:55:00,77.2,70.9,30.02,SE,134,1.0,5.0,81,0.00,,,0.00,86,Wunderground v.1.15,2013-08-28 03:55:00,
2013-08-27 18:00:00,77.1,71.2,30.02,SE,134,1.0,1.0,82,0.00,,,0.00,54,Wunderground v.1.15,2013-08-28 04:00:00,
2013-08-27 18:05:00,77.0,71.1,30.02,SE,134,1.0,1.0,82,0.00,,,0.00,28,Wunderground v.1.15,2013-08-28 04:05:00,
2013-08-27 18:10:00,76.9,71.0,30.01,SE,135,0.0,0.0,82,0.00,,,0.00,23,Wunderground v.1.15,2013-08-28 04:10:00,
2013-08-27 18:15:00,76.8,71.2,30.02,SE,135,0.0,0.0,83,0.00,,,0.00,19,Wunderground v.1.15,2013-08-28 04:15:00,
2013-08-27 18:20:00,76.6,71.4,30.01,SE,135,0.0,0.0,84,0.00,,,0.00,16,Wunderground v.1.15,2013-08-28 04:20:00,
2013-08-27 18:25:00,76.3,71.1,30.01,SE,135,0.0,0.0,84,0.00,,,0.00,12,Wunderground v.1.15,2013-08-28 04:25:00,
2013-08-27 18:30:00,76.2,71.4,30.01,SE,135,0.0,0.0,85,0.00,,,0.00,9,Wunderground v.1.15,2013-08-28 04:30:00,
2013-08-27 18:35:00,75.8,71.0,30.02,SE,135,0.0,0.0,85,0.00,,,0.00,5,Wunderground v.1.15,2013-08-28 04:35:00,
2013-08-27 18:40:00,75.2,70.7,30.02,SE,135,0.0,0.0,86,0.00,,,0.00,0,Wunderground v.1.15,2013-08-28 04:40:00,
2013-08-27 18:45:00,74.7,70.2,30.02,SE,135,1.0,2.0,86,0.00,,,0.00,0,Wunderground v.1.15,2013-08-28 04:45:00,
2013-08-27 18:50:00,74.3,70.2,30.02,SE,135,2.0,2.0,87,0.00,,,0.00,0,Wunderground v.1.15,2013-08-28 04:50:00,
2013-08-27 18:55:00,74.1,70.3,30.02,West,267,3.0,4.0,88,0.00,,,0.00,0,Wunderground v.1.15,2013-08-28 04:55:00,
2013-08-27 19:00:00,73.8,70.0,30.02,West,267,3.0,3.0,88,0.00,,,0.00,0,Wunderground v.1.15,2013-08-28 05:00:00,
2013-08-27 19:10:00,73.1,69.7,30.02,West,267,4.0,4.0,89,0.00,,,0.00,0,Wunderground v.1.15,2013-08-28 05:10:00,
2013-08-27 19:15:00,72.8,69.7,30.02,West,267,4.0,4.0,90,0.00,,,0.00,0,Wunderground v.1.15,2013-08-28 05:15:00,
2013-08-27 19:20:00,72.5,69.4,30.02,West,267,3.0,5.0,90,0.00,,,0.00,0,Wunderground v.1.15,2013-08-28 05:20:00,
2013-08-27 19:25:00,72.3,69.5,30.02,West,267,4.0,5.0,91,0.00,,,0.00,0,Wunderground v.1.15,2013-08-28 05:25:00,
2013-08-27 19:30:00,72.3,69.5,30.02,West,268,4.0,4.0,91,0.00,,,0.00,0,Wunderground v.1.15,2013-08-28 05:30:00,
2013-08-27 19:35:00,72.3,69.5,30.02,West,269,4.0,5.0,91,0.00,,,0.00,0,Wunderground v.1.15,2013-08-28 05:35:00,
2013-08-27 19:40:00,72.2,69.4,30.02,West,271,4.0,4.0,91,0.00,,,0.00,0,Wunderground v.1.15,2013-08-28 05:40:00,
2013-08-27 19:45:00,72.1,69.3,30.02,West,271,4.0,4.0,91,0.00,,,0.00,0,Wunderground v.1.15,2013-08-28 05:45:00,
2013-08-27 19:50:00,72.1,69.6,30.03,West,272,4.0,4.0,92,0.00,,,0.00,0,Wunderground v.1.15,2013-08-28 05:50:00,
2013-08-27 19:55:00,72.1,69.6,30.03,West,279,4.0,4.0,92,0.00,,,0.00,0,Wunderground v.1.15,2013-08-28 05:55:00,
2013-08-27 20:00:00,72.2,69.7,30.03,West,278,4.0,4.0,92,0.00,,,0.00,0,Wunderground v.1.15,2013-08-28 06:00:00,
2013-08-27 20:10:00,72.1,69.3,30.03,WNW,288,4.0,4.0,91,0.00,,,0.00,0,Wunderground v.1.15,2013-08-28 06:10:00,
2013-08-27 20:15:00,72.0,68.9,30.04,WNW,299,4.0,6.0,90,0.00,,,0.00,0,Wunderground v.1.15,2013-08-28 06:15:00,
2013-08-27 20:20:00,72.1,69.0,30.04,WNW,299,4.0,4.0,90,0.00,,,0.00,0,Wunderground v.1.15,2013-08-28 06:20:00,
2013-08-27 20:25:00,72.1,69.0,30.04,WNW,300,3.0,5.0,90,0.00,,,0.00,0,Wunderground v.1.15,2013-08-28 06:25:00,
2013-08-27 20:30:00,71.7,68.0,30.04,WNW,302,4.0,6.0,88,0.00,,,0.00,0,Wunderground v.1.15,2013-08-28 06:30:00,
2013-08-27 20:35:00,71.4,67.3,30.04,WNW,302,3.0,6.0,87,0.00,,,0.00,0,Wunderground v.1.15,2013-08-28 06:35:00,
2013-08-27 20:40:00,71.2,67.5,30.04,WNW,302,1.0,1.0,88,0.00,,,0.00,0,Wunderground v.1.15,2013-08-28 06:40:00,
2013-08-27 20:50:00,70.6,66.9,30.05,WNW,302,1.0,2.0,88,0.00,,,0.00,0,Wunderground v.1.15,2013-08-28 06:50:00,
2013-08-27 20:55:00,70.6,66.9,30.05,WNW,302,1.0,2.0,88,0.00,,,0.00,0,Wunderground v.1.15,2013-08-28 06:55:00,
2013-08-27 21:00:00,70.5,66.8,30.05,WNW,302,0.0,0.0,88,0.00,,,0.00,0,Wunderground v.1.15,2013-08-28 07:00:00,
2013-08-27 21:10:00,70.4,66.7,30.06,WNW,302,0.0,0.0,88,0.00,,,0.00,0,Wunderground v.1.15,2013-08-28 07:10:00,
2013-08-27 21:15:00,70.3,66.6,30.06,WNW,302,1.0,1.0,88,0.00,,,0.00,0,Wunderground v.1.15,2013-08-28 07:15:00,
2013-08-27 21:20:00,70.4,67.0,30.06,WNW,302,1.0,1.0,89,0.00,,,0.00,0,Wunderground v.1.15,2013-08-28 07:20:00,
2013-08-27 21:25:00,70.3,66.9,30.07,WNW,302,0.0,1.0,89,0.00,,,0.00,0,Wunderground v.1.15,2013-08-28 07:25:00,
2013-08-27 21:30:00,70.4,67.3,30.07,WNW,303,1.0,1.0,90,0.00,,,0.00,0,Wunderground v.1.15,2013-08-28 07:30:00,
2013-08-27 21:35:00,70.5,67.4,30.07,NW,304,1.0,4.0,90,0.00,,,0.00,0,Wunderground v.1.15,2013-08-28 07:35:00,
2013-08-27 21:45:00,70.6,67.5,30.07,NW,304,0.0,1.0,90,0.00,,,0.00,0,Wunderground v.1.15,2013-08-28 07:45:00,
2013-08-27 21:50:00,70.5,67.7,30.07,NW,304,0.0,0.0,91,0.00,,,0.00,0,Wunderground v.1.15,2013-08-28 07:50:00,
2013-08-27 21:55:00,70.5,67.7,30.07,NW,304,0.0,0.0,91,0.00,,,0.00,0,Wunderground v.1.15,2013-08-28 07:55:00,
2013-08-27 22:00:00,70.3,67.5,30.07,NW,304,0.0,0.0,91,0.00,,,0.00,0,Wunderground v.1.15,2013-08-28 08:00:00,
2013-08-27 22:10:00,69.7,67.0,30.07,NW,304,0.0,0.0,91,0.00,,,0.00,0,Wunderground v.1.15,2013-08-28 08:10:00,
2013-08-27 22:15:00,69.4,67.0,30.07,NW,304,0.0,0.0,92,0.00,,,0.00,0,Wunderground v.1.15,2013-08-28 08:15:00,
2013-08-27 22:20:00,69.3,66.9,30.07,NW,305,0.0,0.0,92,0.00,,,0.00,0,Wunderground v.1.15,2013-08-28 08:20:00,
2013-08-27 22:25:00,69.0,66.3,30.07,NW,305,0.0,0.0,91,0.00,,,0.00,0,Wunderground v.1.15,2013-08-28 08:25:00,
2013-08-27 22:30:00,68.8,66.1,30.07,NW,305,0.0,0.0,91,0.00,,,0.00,0,Wunderground v.1.15,2013-08-28 08:30:00,
2013-08-27 22:35:00,68.6,65.9,30.07,NW,305,0.0,1.0,91,0.00,,,0.00,0,Wunderground v.1.15,2013-08-28 08:35:00,
2013-08-27 22:45:00,68.0,65.3,30.07,NW,305,2.0,3.0,91,0.00,,,0.00,0,Wunderground v.1.15,2013-08-28 08:45:00,
2013-08-27 22:50:00,67.7,65.0,30.06,NW,305,3.0,3.0,91,0.00,,,0.00,0,Wunderground v.1.15,2013-08-28 08:50:00,
2013-08-27 22:55:00,67.6,64.6,30.06,NW,305,3.0,3.0,90,0.00,,,0.00,0,Wunderground v.1.15,2013-08-28 08:55:00,
2013-08-27 23:00:00,67.7,64.3,30.06,NW,305,3.0,3.0,89,0.00,,,0.00,0,Wunderground v.1.15,2013-08-28 09:00:00,
2013-08-27 23:10:00,67.7,63.7,30.05,NW,305,3.0,4.0,87,0.00,,,0.00,0,Wunderground v.1.15,2013-08-28 09:10:00,
2013-08-27 23:15:00,67.8,63.8,30.06,NW,305,3.0,4.0,87,0.00,,,0.00,0,Wunderground v.1.15,2013-08-28 09:15:00,
2013-08-27 23:20:00,67.8,63.5,30.06,NW,306,2.0,2.0,86,0.00,,,0.00,0,Wunderground v.1.15,2013-08-28 09:20:00,
2013-08-27 23:25:00,68.1,63.4,30.06,NW,306,0.0,2.0,85,0.00,,,0.00,0,Wunderground v.1.15,2013-08-28 09:25:00,
2013-08-27 23:30:00,68.2,63.2,30.06,NW,306,2.0,3.0,84,0.00,,,0.00,0,Wunderground v.1.15,2013-08-28 09:30:00,
2013-08-27 23:35:00,68.3,62.9,30.06,NW,306,3.0,4.0,83,0.00,,,0.00,0,Wunderground v.1.15,2013-08-28 09:35:00,
2013-08-27 23:45:00,68.0,62.6,30.05,NW,306,1.0,3.0,83,0.00,,,0.00,0,Wunderground v.1.15,2013-08-28 09:45:00,
2013-08-27 23:50:00,68.0,62.6,30.05,NW,306,0.0,0.0,83,0.00,,,0.00,0,Wunderground v.1.15,2013-08-28 09:50:00,
2013-08-27 23:55:00,67.6,62.6,30.05,NW,306,0.0,0.0,84,0.00,,,0.00,0,Wunderground v.1.15,2013-08-28 09:55:00,